QLK1580 YSSY-YBSU

Flight info

Callsign QLK1580
Flight time 1h 21m
Altitude 39000
Route OLSEM Y193 BANDA H252 GOMOL Q69 SU
Aircraft E190/M-SDE3GILORVW/S

Departure

Time 2026-05-09 11:23
Airport Sydney Kingsford Smith International Airport (YSSY)

Arrival

Time 2026-05-09 12:44
Airport Sunshine Coast Airport (YBSU)
Time Latitude Longitude Altitude Speed Heading
2026-05-09 10:49 -33.93143 151.17801 29 ft 0 kts 191°
2026-05-09 11:11 -33.93125 151.17806 29 ft 4 kts 193°
2026-05-09 11:11 -33.93105 151.17807 29 ft 2 kts 165°
2026-05-09 11:11 -33.93080 151.17804 29 ft 4 kts 205°
2026-05-09 11:11 -33.93066 151.17823 29 ft 4 kts 270°
2026-05-09 11:12 -33.93066 151.17835 29 ft 0 kts 280°
2026-05-09 11:15 -33.93064 151.17820 29 ft 4 kts 280°
2026-05-09 11:15 -33.93055 151.17762 29 ft 7 kts 284°
2026-05-09 11:15 -33.93036 151.17710 29 ft 9 kts 295°
2026-05-09 11:15 -33.93014 151.17623 29 ft 12 kts 282°
2026-05-09 11:16 -33.93028 151.17560 29 ft 7 kts 224°
2026-05-09 11:16 -33.93084 151.17522 29 ft 10 kts 190°
2026-05-09 11:16 -33.93166 151.17537 29 ft 14 kts 166°
2026-05-09 11:16 -33.93275 151.17564 29 ft 17 kts 168°
2026-05-09 11:17 -33.93400 151.17594 29 ft 18 kts 174°
2026-05-09 11:17 -33.93508 151.17591 28 ft 17 kts 169°
2026-05-09 11:17 -33.93628 151.17626 28 ft 18 kts 158°
2026-05-09 11:17 -33.93746 151.17686 28 ft 19 kts 168°
2026-05-09 11:18 -33.93861 151.17757 28 ft 18 kts 140°
2026-05-09 11:18 -33.93974 151.17798 28 ft 18 kts 167°
2026-05-09 11:18 -33.94105 151.17831 28 ft 20 kts 169°
2026-05-09 11:18 -33.94246 151.17867 29 ft 22 kts 168°
2026-05-09 11:19 -33.94399 151.17907 29 ft 22 kts 168°
2026-05-09 11:19 -33.94539 151.17888 29 ft 20 kts 171°
2026-05-09 11:19 -33.94671 151.17918 29 ft 17 kts 166°
2026-05-09 11:19 -33.94794 151.17952 29 ft 19 kts 168°
2026-05-09 11:20 -33.94934 151.17988 29 ft 22 kts 169°
2026-05-09 11:20 -33.95070 151.18024 29 ft 17 kts 153°
2026-05-09 11:20 -33.95094 151.18143 29 ft 16 kts 77°
2026-05-09 11:20 -33.95069 151.18279 29 ft 17 kts 77°
2026-05-09 11:21 -33.95042 151.18428 29 ft 19 kts 78°
2026-05-09 11:21 -33.95013 151.18589 29 ft 20 kts 78°
2026-05-09 11:21 -33.94983 151.18756 25 ft 19 kts 77°
2026-05-09 11:21 -33.95001 151.18837 23 ft 9 kts 156°
2026-05-09 11:22 -33.95020 151.18843 25 ft 4 kts 168°
2026-05-09 11:22 -33.95266 151.18906 22 ft 70 kts 167°
2026-05-09 11:22 -33.95952 151.19084 27 ft 130 kts 168°
2026-05-09 11:22 -33.96991 151.19313 156 ft 168 kts 171°
2026-05-09 11:23 -33.98168 151.19597 761 ft 178 kts 161°
2026-05-09 11:23 -33.99285 151.20383 1381 ft 193 kts 140°
2026-05-09 11:23 -34.00101 151.21726 1894 ft 209 kts 114°
2026-05-09 11:23 -34.00629 151.23402 2572 ft 220 kts 111°
2026-05-09 11:24 -34.01384 151.25025 3256 ft 234 kts 132°
2026-05-09 11:24 -34.02617 151.26401 3880 ft 249 kts 144°
2026-05-09 11:24 -34.04017 151.27714 4667 ft 260 kts 142°
2026-05-09 11:24 -34.05450 151.29090 5453 ft 267 kts 143°
2026-05-09 11:25 -34.06907 151.30503 6314 ft 270 kts 142°
2026-05-09 11:25 -34.08374 151.31929 7176 ft 272 kts 142°
2026-05-09 11:25 -34.09854 151.33360 8024 ft 274 kts 143°
2026-05-09 11:25 -34.11236 151.34961 8799 ft 280 kts 126°
2026-05-09 11:26 -34.11948 151.37163 9575 ft 288 kts 99°
2026-05-09 11:26 -34.11828 151.39433 10223 ft 299 kts 77°
2026-05-09 11:26 -34.10819 151.41672 10690 ft 313 kts 50°
2026-05-09 11:26 -34.09283 151.43576 11332 ft 319 kts 44°
2026-05-09 11:27 -34.07643 151.45411 12048 ft 323 kts 43°
2026-05-09 11:27 -34.05786 151.46990 12548 ft 334 kts 22°
2026-05-09 11:27 -34.03551 151.47821 13212 ft 338 kts 14°
2026-05-09 11:27 -34.01261 151.48546 13882 ft 342 kts 15°
2026-05-09 11:28 -33.98958 151.49312 14557 ft 345 kts 15°
2026-05-09 11:28 -33.96637 151.50094 15228 ft 348 kts 15°
2026-05-09 11:28 -33.94294 151.50883 15880 ft 351 kts 15°
2026-05-09 11:28 -33.91962 151.51668 16487 ft 354 kts 15°
2026-05-09 11:29 -33.89545 151.52483 17074 ft 358 kts 15°
2026-05-09 11:29 -33.87135 151.53279 17646 ft 361 kts 14°
2026-05-09 11:29 -33.84734 151.54053 18211 ft 364 kts 14°
2026-05-09 11:29 -33.82249 151.54860 18790 ft 367 kts 14°
2026-05-09 11:30 -33.79811 151.55654 19358 ft 370 kts 14°
2026-05-09 11:30 -33.77314 151.56465 19921 ft 373 kts 14°
2026-05-09 11:30 -33.74801 151.57283 20507 ft 377 kts 14°
2026-05-09 11:30 -33.72261 151.58108 21098 ft 379 kts 14°
2026-05-09 11:31 -33.69701 151.58942 21645 ft 382 kts 14°
2026-05-09 11:31 -33.67126 151.59780 22151 ft 385 kts 14°
2026-05-09 11:31 -33.64573 151.60787 22591 ft 389 kts 26°
2026-05-09 11:31 -33.62239 151.62447 23060 ft 392 kts 33°
2026-05-09 11:32 -33.59958 151.64266 23431 ft 396 kts 33°
2026-05-09 11:32 -33.57657 151.66090 23894 ft 397 kts 33°
2026-05-09 11:32 -33.55347 151.67914 24307 ft 399 kts 33°
2026-05-09 11:32 -33.53023 151.69744 24757 ft 400 kts 33°
2026-05-09 11:33 -33.50689 151.71579 25173 ft 402 kts 32°
2026-05-09 11:33 -33.48155 151.73007 25538 ft 404 kts 18°
2026-05-09 11:33 -33.42711 151.74803 26361 ft 408 kts 14°
2026-05-09 11:34 -33.39961 151.75687 26737 ft 410 kts 14°
2026-05-09 11:34 -33.37196 151.76578 27118 ft 412 kts 14°
2026-05-09 11:34 -33.34393 151.77480 27167 ft 423 kts 14°
2026-05-09 11:34 -33.31513 151.78406 27183 ft 434 kts 14°
2026-05-09 11:35 -33.28581 151.79350 27351 ft 439 kts 14°
2026-05-09 11:35 -33.25626 151.80303 27658 ft 440 kts 15°
2026-05-09 11:35 -33.22665 151.81255 27964 ft 441 kts 14°
2026-05-09 11:35 -33.19694 151.82212 28247 ft 443 kts 15°
2026-05-09 11:36 -33.16717 151.83170 28511 ft 444 kts 15°
2026-05-09 11:36 -33.13729 151.84135 28762 ft 445 kts 15°
2026-05-09 11:36 -33.10732 151.85096 29019 ft 447 kts 15°
2026-05-09 11:36 -33.07727 151.86061 29267 ft 448 kts 15°
2026-05-09 11:37 -33.04717 151.87025 29585 ft 447 kts 15°
2026-05-09 11:37 -33.01724 151.87985 29945 ft 446 kts 15°
2026-05-09 11:37 -32.98735 151.88943 30331 ft 444 kts 15°
2026-05-09 11:37 -32.95751 151.89899 30694 ft 443 kts 15°
2026-05-09 11:38 -32.92776 151.90849 31038 ft 443 kts 15°
2026-05-09 11:38 -32.89799 151.91801 31375 ft 442 kts 15°
2026-05-09 11:38 -32.86826 151.92752 31657 ft 443 kts 14°
2026-05-09 11:38 -32.83892 151.93688 31960 ft 442 kts 15°
2026-05-09 11:39 -32.80923 151.94638 32230 ft 442 kts 14°
2026-05-09 11:39 -32.77958 151.95584 32494 ft 442 kts 14°
2026-05-09 11:39 -32.74990 151.96531 32722 ft 441 kts 14°
2026-05-09 11:40 -32.69061 151.98418 33220 ft 441 kts 14°
2026-05-09 11:40 -32.66098 151.99361 33468 ft 441 kts 14°
2026-05-09 11:40 -32.63141 152.00304 33717 ft 440 kts 14°
2026-05-09 11:40 -32.60261 152.01220 33931 ft 440 kts 14°
2026-05-09 11:41 -32.57300 152.02159 34153 ft 441 kts 14°
2026-05-09 11:41 -32.54341 152.03097 34397 ft 440 kts 14°
2026-05-09 11:41 -32.51385 152.04038 34642 ft 440 kts 14°
2026-05-09 11:41 -32.48428 152.04976 34854 ft 440 kts 14°
2026-05-09 11:42 -32.45587 152.05873 35070 ft 440 kts 13°
2026-05-09 11:42 -32.42627 152.06808 35307 ft 440 kts 13°
2026-05-09 11:42 -32.39672 152.07741 35542 ft 439 kts 13°
2026-05-09 11:42 -32.36720 152.08672 35764 ft 439 kts 13°
2026-05-09 11:43 -32.33767 152.09605 35959 ft 439 kts 13°
2026-05-09 11:43 -32.30814 152.10537 36183 ft 439 kts 13°
2026-05-09 11:43 -32.27859 152.11469 36409 ft 439 kts 13°
2026-05-09 11:43 -32.24907 152.12399 36593 ft 439 kts 13°
2026-05-09 11:44 -32.21957 152.13325 36830 ft 438 kts 13°
2026-05-09 11:44 -32.19024 152.14250 37140 ft 435 kts 13°
2026-05-09 11:44 -32.16110 152.15166 37405 ft 432 kts 12°
2026-05-09 11:44 -32.13210 152.16079 37648 ft 431 kts 12°
2026-05-09 11:45 -32.10312 152.16989 37786 ft 431 kts 12°
2026-05-09 11:45 -32.07406 152.17900 37894 ft 432 kts 12°
2026-05-09 11:45 -32.04507 152.18807 37980 ft 432 kts 12°
2026-05-09 11:46 -31.98696 152.20628 38144 ft 433 kts 12°
2026-05-09 11:46 -31.92872 152.22453 38322 ft 433 kts 12°
2026-05-09 11:46 -31.89960 152.23362 38424 ft 433 kts 12°
2026-05-09 11:47 -31.87046 152.24271 38513 ft 433 kts 12°
2026-05-09 11:47 -31.81222 152.26093 38652 ft 433 kts 12°
2026-05-09 11:48 -31.75388 152.27909 38806 ft 434 kts 11°
2026-05-09 11:48 -31.70531 152.29415 38964 ft 434 kts 11°
2026-05-09 11:49 -31.64692 152.31230 39138 ft 434 kts 11°
2026-05-09 11:49 -31.58878 152.33045 39455 ft 430 kts 11°
2026-05-09 11:50 -31.53107 152.34838 39429 ft 437 kts 11°
2026-05-09 11:50 -31.47192 152.36667 39367 ft 444 kts 11°
2026-05-09 11:51 -31.41182 152.38529 39324 ft 450 kts 11°
2026-05-09 11:51 -31.35110 152.40403 39318 ft 452 kts 11°
2026-05-09 11:52 -31.29018 152.42278 39321 ft 454 kts 11°
2026-05-09 11:52 -31.22901 152.44170 39315 ft 455 kts 11°
2026-05-09 11:53 -31.16791 152.46049 39315 ft 454 kts 11°
2026-05-09 11:53 -31.10676 152.47928 39321 ft 454 kts 10°
2026-05-09 11:54 -31.04561 152.49807 39326 ft 455 kts 10°
2026-05-09 11:54 -30.98438 152.51681 39329 ft 455 kts 10°
2026-05-09 11:55 -30.92308 152.53558 39338 ft 455 kts 10°
2026-05-09 11:56 -30.73972 152.59442 39328 ft 459 kts 13°
2026-05-09 11:57 -30.67885 152.61683 39327 ft 459 kts 12°
2026-05-09 11:57 -30.61819 152.63891 39327 ft 459 kts 12°
2026-05-09 11:58 -30.55706 152.66095 39336 ft 460 kts 12°
2026-05-09 11:58 -30.49587 152.68300 39327 ft 461 kts 12°
2026-05-09 11:59 -30.43466 152.70509 39333 ft 461 kts 12°
2026-05-09 11:59 -30.37337 152.72708 39329 ft 461 kts 12°
2026-05-09 12:00 -30.31214 152.74907 39325 ft 461 kts 12°
2026-05-09 12:00 -30.25086 152.77100 39329 ft 461 kts 12°
2026-05-09 12:01 -30.18956 152.79298 39337 ft 461 kts 12°
2026-05-09 12:01 -30.12820 152.81488 39325 ft 462 kts 12°
2026-05-09 12:02 -30.06681 152.83674 39328 ft 462 kts 11°
2026-05-09 12:02 -30.00583 152.85852 39328 ft 462 kts 11°
2026-05-09 12:03 -29.94438 152.88038 39331 ft 463 kts 11°
2026-05-09 12:03 -29.88281 152.90237 39325 ft 464 kts 11°
2026-05-09 12:04 -29.82115 152.92455 39321 ft 464 kts 11°
2026-05-09 12:04 -29.75937 152.94660 39314 ft 465 kts 11°
2026-05-09 12:05 -29.69771 152.96863 39321 ft 465 kts 11°
2026-05-09 12:05 -29.63598 152.99068 39318 ft 465 kts 11°
2026-05-09 12:06 -29.57426 153.01266 39316 ft 465 kts 11°
2026-05-09 12:06 -29.51249 153.03461 39318 ft 464 kts 11°
2026-05-09 12:07 -29.45075 153.05651 39320 ft 464 kts 11°
2026-05-09 12:07 -29.38938 153.07827 39320 ft 464 kts 11°
2026-05-09 12:08 -29.32803 153.10001 39317 ft 465 kts 11°
2026-05-09 12:08 -29.26628 153.12187 39307 ft 465 kts 11°
2026-05-09 12:09 -29.20460 153.14357 39307 ft 465 kts 11°
2026-05-09 12:09 -29.14279 153.16529 39310 ft 465 kts 11°
2026-05-09 12:10 -29.01917 153.20869 39311 ft 465 kts 10°
2026-05-09 12:11 -28.95785 153.23019 39299 ft 464 kts 10°
2026-05-09 12:11 -28.89560 153.25193 39301 ft 465 kts 10°
2026-05-09 12:12 -28.83375 153.27350 39302 ft 465 kts 10°
2026-05-09 12:12 -28.77195 153.29506 39300 ft 465 kts 10°
2026-05-09 12:13 -28.71174 153.31606 39305 ft 465 kts 10°
2026-05-09 12:13 -28.65012 153.33749 39301 ft 465 kts 10°
2026-05-09 12:14 -28.58827 153.35900 39300 ft 465 kts 10°
2026-05-09 12:14 -28.52771 153.38002 39306 ft 466 kts 10°
2026-05-09 12:15 -28.46572 153.40153 39301 ft 466 kts 10°
2026-05-09 12:15 -28.40420 153.42283 39300 ft 466 kts 10°
2026-05-09 12:16 -28.34226 153.44426 39303 ft 466 kts 10°
2026-05-09 12:16 -28.28065 153.46554 39300 ft 466 kts 10°
2026-05-09 12:17 -28.21821 153.48707 39304 ft 466 kts 10°
2026-05-09 12:17 -28.15629 153.50378 39315 ft 451 kts 355°
2026-05-09 12:18 -28.09387 153.50376 39285 ft 449 kts 352°
2026-05-09 12:18 -28.03156 153.50282 38884 ft 448 kts 352°
2026-05-09 12:18 -28.00084 153.50258 38680 ft 436 kts 352°
2026-05-09 12:19 -27.97050 153.50228 38000 ft 437 kts 352°
2026-05-09 12:19 -27.94026 153.50202 37504 ft 432 kts 352°
2026-05-09 12:19 -27.91018 153.50175 36869 ft 431 kts 352°
2026-05-09 12:19 -27.88031 153.50149 36326 ft 428 kts 352°
2026-05-09 12:20 -27.85051 153.50124 35735 ft 428 kts 352°
2026-05-09 12:20 -27.82245 153.50098 35202 ft 430 kts 352°
2026-05-09 12:20 -27.79236 153.50065 34637 ft 434 kts 352°
2026-05-09 12:20 -27.76200 153.50034 34039 ft 439 kts 352°
2026-05-09 12:21 -27.73134 153.50005 33467 ft 441 kts 352°
2026-05-09 12:21 -27.70059 153.49973 32863 ft 443 kts 353°
2026-05-09 12:21 -27.66976 153.49937 32285 ft 444 kts 353°
2026-05-09 12:21 -27.64091 153.49905 31735 ft 445 kts 353°
2026-05-09 12:22 -27.60996 153.49878 31127 ft 445 kts 353°
2026-05-09 12:22 -27.57897 153.49838 30544 ft 445 kts 354°
2026-05-09 12:22 -27.54797 153.49809 29952 ft 447 kts 354°
2026-05-09 12:22 -27.51679 153.49777 29364 ft 448 kts 354°
2026-05-09 12:23 -27.48725 153.49741 28775 ft 449 kts 354°
2026-05-09 12:23 -27.45620 153.49704 28193 ft 445 kts 355°
2026-05-09 12:23 -27.42541 153.49672 27608 ft 440 kts 355°
2026-05-09 12:23 -27.39631 153.49642 27048 ft 436 kts 355°
2026-05-09 12:24 -27.36608 153.49605 26469 ft 432 kts 355°
2026-05-09 12:24 -27.33619 153.49571 25898 ft 428 kts 356°
2026-05-09 12:24 -27.30650 153.49535 25334 ft 425 kts 356°
2026-05-09 12:24 -27.27702 153.49502 24776 ft 422 kts 356°
2026-05-09 12:25 -27.24774 153.49469 24213 ft 419 kts 356°
2026-05-09 12:25 -27.22045 153.49436 23691 ft 416 kts 356°
2026-05-09 12:25 -27.19162 153.49408 23139 ft 413 kts 357°
2026-05-09 12:25 -27.16305 153.49383 22601 ft 409 kts 357°
2026-05-09 12:26 -27.13506 153.49360 22061 ft 406 kts 357°
2026-05-09 12:26 -27.10695 153.49334 21524 ft 402 kts 357°
2026-05-09 12:26 -27.07912 153.49309 20994 ft 399 kts 357°
2026-05-09 12:26 -27.05253 153.49286 20483 ft 395 kts 357°
2026-05-09 12:27 -27.02513 153.49261 19962 ft 392 kts 357°
2026-05-09 12:27 -26.99797 153.49236 19443 ft 389 kts 357°
2026-05-09 12:27 -26.97100 153.49211 18928 ft 386 kts 357°
2026-05-09 12:27 -26.94427 153.49186 18417 ft 383 kts 358°
2026-05-09 12:28 -26.91775 153.49161 17908 ft 380 kts 358°
2026-05-09 12:28 -26.89146 153.49136 17412 ft 377 kts 358°
2026-05-09 12:28 -26.86535 153.49113 16910 ft 374 kts 358°
2026-05-09 12:28 -26.83938 153.49088 16413 ft 372 kts 358°
2026-05-09 12:29 -26.81363 153.49068 15918 ft 369 kts 358°
2026-05-09 12:29 -26.78804 153.49043 15432 ft 366 kts 358°
2026-05-09 12:29 -26.76265 153.49018 14946 ft 361 kts 358°
2026-05-09 12:29 -26.73790 153.48920 14322 ft 352 kts 351°
2026-05-09 12:30 -26.71512 153.47960 13664 ft 347 kts 327°
2026-05-09 12:30 -26.69563 153.46456 13232 ft 336 kts 324°
2026-05-09 12:30 -26.65761 153.43627 12362 ft 321 kts 326°
2026-05-09 12:31 -26.63905 153.42283 11949 ft 314 kts 327°
2026-05-09 12:31 -26.60289 153.39694 11133 ft 304 kts 327°
2026-05-09 12:31 -26.58519 153.38437 10729 ft 299 kts 327°
2026-05-09 12:32 -26.56772 153.37198 10335 ft 296 kts 327°
2026-05-09 12:32 -26.55034 153.35973 9941 ft 294 kts 327°
2026-05-09 12:32 -26.53306 153.34752 9560 ft 294 kts 327°
2026-05-09 12:32 -26.51578 153.33532 9173 ft 294 kts 327°
2026-05-09 12:33 -26.49847 153.32313 8787 ft 294 kts 327°
2026-05-09 12:33 -26.48116 153.31097 8400 ft 294 kts 327°
2026-05-09 12:33 -26.46405 153.29889 8176 ft 287 kts 326°
2026-05-09 12:33 -26.44900 153.28448 8066 ft 285 kts 314°
2026-05-09 12:34 -26.43532 153.26838 8027 ft 288 kts 312°
2026-05-09 12:34 -26.42153 153.25212 7952 ft 289 kts 313°
2026-05-09 12:34 -26.41238 153.24141 7968 ft 288 kts 313°
2026-05-09 12:34 -26.39849 153.22520 7967 ft 289 kts 313°
2026-05-09 12:35 -26.38451 153.20897 7972 ft 290 kts 313°
2026-05-09 12:35 -26.37055 153.19273 7967 ft 290 kts 313°
2026-05-09 12:35 -26.35749 153.17526 7596 ft 294 kts 298°
2026-05-09 12:35 -26.35145 153.15406 7456 ft 285 kts 278°
2026-05-09 12:36 -26.34874 153.13210 7085 ft 288 kts 276°
2026-05-09 12:36 -26.34550 153.10286 6544 ft 287 kts 276°
2026-05-09 12:36 -26.34373 153.08796 6255 ft 286 kts 276°
2026-05-09 12:36 -26.34104 153.06615 5872 ft 282 kts 276°
2026-05-09 12:37 -26.34257 153.04511 5460 ft 265 kts 247°
2026-05-09 12:37 -26.35166 153.02835 5166 ft 244 kts 229°
2026-05-09 12:37 -26.36271 153.01413 4889 ft 241 kts 227°
2026-05-09 12:37 -26.37381 153.00021 4548 ft 240 kts 218°
2026-05-09 12:38 -26.38797 152.99158 4238 ft 226 kts 200°
2026-05-09 12:38 -26.40234 152.98501 3953 ft 222 kts 202°
2026-05-09 12:38 -26.41616 152.97821 3676 ft 218 kts 202°
2026-05-09 12:38 -26.42994 152.97143 3398 ft 217 kts 202°
2026-05-09 12:39 -26.44402 152.96556 3117 ft 216 kts 187°
2026-05-09 12:39 -26.45841 152.96817 2902 ft 211 kts 150°
2026-05-09 12:39 -26.47031 152.97766 2731 ft 210 kts 142°
2026-05-09 12:39 -26.48134 152.98734 2493 ft 190 kts 142°
2026-05-09 12:40 -26.49128 152.99589 2213 ft 172 kts 144°
2026-05-09 12:40 -26.50046 153.00369 1958 ft 157 kts 143°
2026-05-09 12:40 -26.50832 153.01048 1861 ft 134 kts 143°
2026-05-09 12:40 -26.51573 153.01673 1683 ft 133 kts 144°
2026-05-09 12:41 -26.52297 153.02305 1511 ft 131 kts 140°
2026-05-09 12:41 -26.52978 153.02993 1371 ft 132 kts 139°
2026-05-09 12:41 -26.53690 153.03625 1289 ft 130 kts 144°
2026-05-09 12:41 -26.54455 153.04210 1104 ft 135 kts 147°
2026-05-09 12:42 -26.55180 153.04839 931 ft 132 kts 138°
2026-05-09 12:42 -26.55864 153.05479 782 ft 126 kts 145°
2026-05-09 12:42 -26.56599 153.06029 567 ft 127 kts 147°
2026-05-09 12:42 -26.57322 153.06621 389 ft 132 kts 143°
2026-05-09 12:43 -26.58062 153.07252 200 ft 133 kts 143°
2026-05-09 12:43 -26.58787 153.07864 39 ft 126 kts 143°
2026-05-09 12:43 -26.59404 153.08387 19 ft 89 kts 142°
2026-05-09 12:43 -26.59801 153.08724 22 ft 65 kts 142°
2026-05-09 12:44 -26.60126 153.09001 19 ft 46 kts 141°
2026-05-09 12:44 -26.60299 153.09148 22 ft 18 kts 142°
2026-05-09 12:44 -26.60396 153.09170 20 ft 14 kts 192°
2026-05-09 12:44 -26.60490 153.09133 21 ft 10 kts 223°
2026-05-09 12:45 -26.60522 153.09079 20 ft 9 kts 246°
2026-05-09 12:45 -26.60518 153.09027 20 ft 6 kts 285°
2026-05-09 12:45 -26.60522 153.08984 20 ft 5 kts 255°
2026-05-09 12:45 -26.60528 153.08959 20 ft 1 kts 255°
2026-05-09 12:46 -26.60529 153.08955 20 ft 0 kts 255°